Last 30 Days

Squaw-Red Dog 6200'

Daily Data | America/Los_Angeles
as of 3/29/20 2:03 PM PDT
Date Daily Max Temp (°F) Max Temp Time Daily Min Temp (°F) Min Temp Time Daily Rain (In) New Snow (in) SnowDepth (in) Wind Spd (mph) Daily Max Wind (mph) Max Wind Time Max Wind Dir (°) Max RH (%) Min RH (%) Wet Bulb (°F) WetB Hrs <28F (hrs) Bat Volt Min Day (V)
3/28/20 39.6 1420 20.3 0543 0.00 3.3 11.4 2.5 13.7 1036 N | 1 100 54 27.5 - 12.5
3/27/20 36.1 1558 6.9 0642 0.00 3.7 112.7 4.1 19.9 1507 NW | 326 94 46 21.0 - 12.4
3/26/20 37.0 1245 13.4 0001 0.00 4.2 110.6 1.7 14.9 1804 SE | 141 94 40 20.4 - 12.4
3/25/20 29.9 1632 19.3 0001 0.00 4.1 17.4 6.1 21.2 1350 NNW | 336 96 59 23.6 - 12.4
3/24/20 35.3 0001 26.8 2354 0.00 2.5 13.5 7.7 29.8 0042 W | 262 98 61 29.7 8.8 12.4
3/23/20 37.9 1506 21.5 0559 0.00 18.5 108.4 7.6 32.1 1807 NNW | 347 97 72 29.7 - 12.4
3/22/20 53.0 1419 19.0 0700 0.00 20.9 110.0 2.2 17.8 1757 NNW | 348 98 29 28.8 - 12.4
3/21/20 49.1 1547 18.7 0639 0.00 21.2 111.2 1.4 9.8 1312 SSW | 202 97 36 - - 12.4
3/20/20 - 0001 - 0001 0.00 25.9 114.9 1.4 11.4 1016 WSW | 240 94 54 - 15.6 12.4
3/19/20 - 1852 17.7 0755 0.00 28.2 117.9 1.7 9.4 1551 NNW | 337 95 38 - - 12.4
3/18/20 - 0001 - 0001 0.00 43.4 118.5 3.9 15.8 1455 NW | 318 95 69 - - 12.4
3/17/20 28.2 1359 20.8 0726 0.00 - 14.9 5.0 20.4 1314 NNW | 342 100 60 - - 12.4
3/16/20 - 0001 - 0001 0.00 - 13.4 2.0 13.7 0918 NNW | 327 100 94 - 19.2 12.4
3/15/20 30.1 1648 25.7 2342 0.00 28.1 13.9 3.8 18.9 0756 NW | 326 99 91 - - 12.4
3/14/20 35.8 0017 26.7 2230 0.00 12.4 13.5 4.5 24.1 0203 NNE | 18 99 80 29.3 18.1 12.4
3/13/20 48.5 1211 23.2 0652 0.00 - 83.8 7.9 32.5 2258 N | 4 86 26 32.3 - 12.4
3/12/20 56.5 1645 26.2 0528 0.00 - 84.5 2.7 18.7 1127 S | 175 100 28 33.7 16.4 12.4
3/11/20 59.1 1413 26.5 0545 0.00 - 85.7 1.6 10.0 1813 NNW | 347 98 33 35.0 15.2 12.4
3/10/20 53.8 1655 26.9 0805 0.00 - 86.4 2.1 15.1 1309 SSE | 163 97 35 33.8 8.1 12.4
3/9/20 45.6 1620 27.4 0735 0.00 0.1 85.8 2.6 14.1 1358 NNW | 330 95 35 32.2 6.4 12.4
3/8/20 38.1 1320 29.5 0622 0.00 0.5 11.4 3.7 14.1 1743 NNE | 13 96 57 - 0.0 12.4
3/7/20 43.0 0017 30.0 2124 0.00 0.5 11.4 4.2 20.0 0745 N | 2 96 52 31.7 0.0 12.4
3/6/20 54.6 1400 41.5 2342 0.00 - 85.4 5.8 20.7 1612 NNE | 32 57 27 37.6 0.0 12.4
3/5/20 57.0 1430 24.8 0625 0.00 0.1 84.2 4.2 19.9 1105 NE | 37 87 29 35.2 23.9 12.4
3/4/20 58.8 1434 23.1 0615 0.00 1.2 86.8 1.9 10.7 1304 N | 350 95 18 33.0 - 12.4
3/3/20 55.7 1535 20.0 0632 0.00 2.4 88.3 1.3 8.8 1309 SW | 222 97 32 31.0 - 12.4
3/2/20 40.8 1455 11.7 0712 0.00 3.8 88.1 3.4 15.3 1425 S | 182 95 26 23.1 - 12.4
3/1/20 29.4 0001 14.4 2359 0.00 6.0 89.5 4.6 20.5 1234 SSW | 204 98 63 22.6 - 12.4
2/29/20 45.5 1310 29.3 2250 0.00 1.4 11.9 10.2 32.2 1254 NNW | 348 97 26 33.4 0.0 12.4
2/28/20 53.3 1309 25.5 0606 0.00 - 85.6 3.0 18.0 1331 NNW | 345 89 24 33.4 - 12.4
Max 59.1 - 41.5 - 0.00 43.4 118.5 10.2 32.5 - - 100 94 37.6 23.9 12.5
Avg - - - - - 10.6 69.0 3.8 - - - - - 29.9 - -
Min 28.2 - 6.9 - 0.00 0.1 11.4 1.3 8.8 - - 57 18 20.4 0.0 12.4